FW7196 Weather Reports


time (UTC)temp
F
wind
direction
speed
knots
gust
knots
rain 1hr
in
rain 24hr
in
rain mn
in
humidity
%
barometer
mb
20260503013038 43 0 0.0 0.0 0.00 0.35 0.35 81 1011.4
20260503011535 44 343 0.9 2.6 0.00 0.35 0.35 81 1011.2
20260503010037 45 0 0.0 2.6 0.00 0.35 0.35 80 1011.0
20260503004537 45 0 0.0 1.7 0.00 0.35 0.35 79 1010.8
20260503003039 46 0 0.0 0.9 0.00 0.35 0.35 84 1010.6
20260503001546 46 353 0.0 1.7 0.00 0.35 0.35 82 1010.1
20260503000035 46 134 0.0 2.6 0.00 0.35 0.35 79 1009.7
20260502234541 46 0 0.0 1.7 0.00 0.35 0.35 88 1009.5
20260502233034 47 0 0.0 0.0 0.00 0.35 0.35 87 1009.5
20260502231536 47 0 0.0 0.0 0.00 0.35 0.35 87 1009.4
20260502230037 48 0 0.0 0.0 0.00 0.35 0.35 86 1009.5
20260502224537 48 0 0.0 0.0 0.00 0.35 0.35 86 1009.4
20260502223036 49 0 0.0 0.0 0.00 0.35 0.35 82 1009.3
20260502221540 49 0 0.0 0.0 0.00 0.35 0.35 81 1009.2
20260502220035 49 0 0.0 0.0 0.00 0.35 0.35 80 1009.2
20260502214534 49 0 0.0 0.0 0.00 0.35 0.35 80 1009.3
20260502213036 49 0 0.0 0.0 0.00 0.35 0.35 76 1009.2
20260502211536 49 0 0.0 1.7 0.00 0.35 0.35 75 1009.2
20260502210033 49 0 0.0 0.9 0.00 0.35 0.35 74 1009.3
20260502204539 50 0 0.0 1.7 0.00 0.35 0.35 78 1009.4
20260502203034 50 0 0.0 2.6 0.00 0.35 0.35 74 1009.3
20260502201545 51 36 1.7 4.3 0.00 0.35 0.35 70 1009.2
20260502200035 49 272 0.9 2.6 0.00 0.35 0.35 75 1009.4
20260502194535 51 0 0.0 2.6 0.00 0.35 0.35 74 1009.6
20260502193037 50 188 0.0 2.6 0.00 0.35 0.35 81 1009.6
20260502191546 49 250 0.9 2.6 0.00 0.35 0.35 77 1009.8
20260502190039 48 348 0.9 3.5 0.00 0.35 0.35 84 1009.7
20260502184545 49 348 0.9 3.5 0.00 0.35 0.35 83 1009.9
20260502183043 47 353 0.0 4.3 0.00 0.35 0.35 89 1010.2
20260502181542 47 74 0.0 3.5 0.00 0.35 0.35 87 1010.3
20260502163038 44 0 0.0 0.0 0.15 0.34 0.34 93 1010.4
20260502161534 44 0 0.0 0.0 0.15 0.34 0.34 94 1010.4
20260502151538 46 0 0.0 0.0 0.00 0.19 0.19 91 1010.4
20260502123037 41 0 0.0 0.0 0.00 0.19 0.19 95 1011.4
20260502121545 40 0 0.0 0.0 0.00 0.19 0.19 95 1011.4
20260502114536 40 0 0.0 0.0 0.00 0.19 0.19 95 1011.1
20260502113038 40 0 0.0 0.0 0.00 0.19 0.19 95 1011.2
20260502111535 40 0 0.0 0.0 0.00 0.19 0.19 95 1011.3
20260502110036 39 0 0.0 0.9 0.00 0.19 0.19 95 1011.2
20260502104534 40 0 0.0 0.0 0.00 0.19 0.19 95 1010.8
20260502103042 39 0 0.0 0.0 0.00 0.19 0.19 95 1010.5
20260502101543 39 0 0.0 0.0 0.00 0.19 0.19 95 1010.9
20260502070034 39 0 0.0 0.9 0.07 0.12 0.12 92 1011.4
20260502064534 39 0 0.0 0.0 0.10 0.12 0.12 92 1011.5
20260502063036 39 0 0.0 0.0 0.10 0.11 0.11 92 1011.7
20260502061539 39 0 0.0 0.0 0.09 0.09 0.09 91 1011.9
20260502060035 39 0 0.0 0.9 0.05 0.05 0.05 90 1012.0
20260502054534 39 0 0.0 0.0 0.02 0.02 0.02 88 1012.1
20260502053037 39 0 0.0 0.0 0.00 0.00 0.00 84 1011.8
20260502051540 39 0 0.0 0.0 0.00 0.00 0.00 81 1011.7
20260502050039 39 0 0.0 0.0 0.00 0.00 0.00 80 1011.6
20260502044538 38 0 0.0 3.5 0.00 0.00 0.00 81 1011.5
20260502043035 38 0 0.0 3.5 0.00 0.00 0.00 81 1011.1
20260502041557 37 0 0.0 0.0 0.00 0.00 0.00 82 1010.9
20260502040033 37 0 0.0 0.0 0.00 0.00 0.00 82 1011.1
20260502034536 37 0 0.0 0.0 0.00 0.00 0.00 80 1011.0
20260502033050 37 0 0.0 0.0 0.00 0.00 0.00 80 1010.9
20260502031535 38 0 0.0 0.0 0.00 0.00 0.00 78 1010.9
20260502030037 38 0 0.0 0.0 0.00 0.00 0.00 77 1010.8
20260502024537 39 0 0.0 0.0 0.00 0.00 0.00 76 1010.8
20260502023035 39 0 0.0 0.0 0.00 0.00 0.00 74 1010.8
20260502021536 40 0 0.0 0.0 0.00 0.00 0.00 73 1010.9
20260502020038 41 0 0.0 0.0 0.00 0.00 0.00 72 1010.9
20260502014535 42 0 0.0 0.0 0.00 0.01 0.00 69 1011.0